Weather History for Taos, NM

Change the Weather History Date:

Friday, November 9, 2012

  Actual Average Record
Temperature  
Mean Temperature 44 °F -  
Max Temperature 57 °F 49 °F 66 °F (2005)
Min Temperature 30 °F 21 °F 15 °F (2011)
Degree Days  
Heating Degree Days 22    
Moisture  
Dew Point 31 °F    
Average Humidity 62    
Maximum Humidity 87    
Minimum Humidity 41    
Precipitation  
Precipitation 0.17 in - - ()
Sea Level Pressure  
Sea Level Pressure 29.99 in    
Wind  
Wind Speed 7 mph (SW)    
Max Wind Speed 25 mph    
Max Gust Speed 30 mph    
Visibility 10 miles    
Events      
Averages and records for this station are not official NWS values.
T = Trace of Precipitation, MM = Missing Value Source: NWS Daily Summary

Daily Weather History Graph

Daily Weather History Graph

Search for Another Location

Airport:

Trip Planner

Search our weather history database for the weather conditions in past years. The results will help you decide how hot, cold, wet, or windy it might be!

Date:

Astronomy

Nov. 09, 2012 Rise Set
Actual Time 6:34 AM MST 4:58 PM MST
Civil Twilight 6:07 AM MST 5:25 PM MST
Nautical Twilight 5:36 AM MST 5:56 PM MST
Astronomical Twilight 5:06 AM MST 6:26 PM MST
Moon 1:43 AM MST (11/9) 2:06 PM MST (11/9)
Length of Visible Light 11h 17m
Length of Day
10h 23m
Waning Crescent, 22% of the Moon is Illuminated
Nov 9
Waning Crescent
Nov 13
New
Nov 20
First Quarter
Nov 28
Full
Dec 6
Last Quarter

Hourly Weather History & Observations

Time (MST) Temp. Windchill Dew Point Humidity Pressure Visibility Wind Dir Wind Speed Gust Speed Precip Events Conditions
12:15 AM 32.0 °F 27.5 °F 15.8 °F 51% 30.04 in 10.0 mi NE 4.6 mph - N/A   Clear
12:35 AM 32.0 °F 28.7 °F 14.0 °F 48% 30.04 in 10.0 mi North 3.5 mph - N/A   Clear
12:55 AM 33.8 °F 29.6 °F 15.8 °F 48% 30.03 in 10.0 mi ENE 4.6 mph - N/A   Clear
1:15 AM 30.2 °F - 15.8 °F 55% 30.04 in 10.0 mi Calm Calm - N/A   Clear
1:35 AM 32.0 °F - 15.8 °F 51% 30.04 in 10.0 mi Calm Calm - N/A   Clear
1:55 AM 32.0 °F - 17.6 °F 55% 30.04 in 10.0 mi Calm Calm - N/A   Clear
2:15 AM 37.4 °F 32.1 °F 21.2 °F 52% 30.04 in 10.0 mi SE 6.9 mph - N/A   Clear
2:35 AM 33.8 °F 27.0 °F 17.6 °F 52% 30.04 in 10.0 mi ESE 8.1 mph - N/A   Clear
2:55 AM 30.2 °F 22.6 °F 15.8 °F 55% 30.03 in 10.0 mi ESE 8.1 mph - N/A   Clear
3:15 AM 32.0 °F 26.4 °F 15.8 °F 51% 30.03 in 10.0 mi ESE 5.8 mph - N/A   Partly Cloudy
3:35 AM 32.0 °F 25.6 °F 15.8 °F 51% 30.03 in 10.0 mi ESE 6.9 mph - N/A   Clear
3:55 AM 33.8 °F 29.6 °F 17.6 °F 52% 30.04 in 10.0 mi ESE 4.6 mph - N/A   Clear
4:15 AM 30.2 °F 25.4 °F 12.2 °F 47% 30.06 in 10.0 mi NW 4.6 mph - N/A   Mostly Cloudy
4:35 AM 37.4 °F 34.9 °F 17.6 °F 45% 30.08 in 10.0 mi West 3.5 mph - N/A   Overcast
4:55 AM 37.4 °F - 26.6 °F 65% 30.08 in 9.0 mi Calm Calm - N/A   Overcast
5:15 AM 37.4 °F 32.1 °F 28.4 °F 70% 30.08 in 10.0 mi SE 6.9 mph - N/A   Overcast
5:35 AM 37.4 °F 30.8 °F 28.4 °F 70% 30.07 in 10.0 mi East 9.2 mph - N/A   Overcast
5:55 AM 37.4 °F 30.3 °F 32.0 °F 81% 30.06 in 10.0 mi East 10.4 mph - N/A   Overcast
6:15 AM 39.2 °F 35.9 °F 33.8 °F 81% 30.06 in 10.0 mi NE 4.6 mph - N/A   Overcast
6:35 AM 39.2 °F - 32.0 °F 75% 30.06 in 10.0 mi Calm Calm - N/A   Mostly Cloudy
6:55 AM 37.4 °F - 30.2 °F 75% 30.07 in 10.0 mi Calm Calm - N/A   Mostly Cloudy
7:15 AM 39.2 °F 35.9 °F 32.0 °F 75% 30.07 in 10.0 mi NNW 4.6 mph - N/A   Overcast
7:55 AM 41.0 °F 38.0 °F 33.8 °F 76% 30.07 in 10.0 mi NW 4.6 mph - N/A   Overcast
8:15 AM 42.8 °F - 33.8 °F 70% 30.06 in 10.0 mi Calm Calm - N/A   Mostly Cloudy
8:35 AM 48.2 °F - 33.8 °F 58% 30.06 in 10.0 mi Calm Calm - N/A   Mostly Cloudy
8:55 AM 48.2 °F - 33.8 °F 58% 30.06 in 10.0 mi WSW 4.6 mph - N/A   Mostly Cloudy
9:15 AM 48.2 °F - 33.8 °F 58% 30.06 in 10.0 mi WSW 5.8 mph - N/A   Partly Cloudy
9:35 AM 50.0 °F - 35.6 °F 58% 30.05 in 10.0 mi WSW 4.6 mph - N/A   Scattered Clouds
9:55 AM 51.8 °F - 35.6 °F 54% 30.05 in 10.0 mi SW 8.1 mph - N/A   Mostly Cloudy
10:15 AM 51.8 °F - 35.6 °F 54% 30.05 in 10.0 mi SW 10.4 mph - N/A   Mostly Cloudy
10:35 AM 53.6 °F - 33.8 °F 47% 30.04 in 10.0 mi SW 12.7 mph 17.3 mph N/A   Overcast
10:55 AM 55.4 °F - 33.8 °F 44% 30.03 in 10.0 mi WSW 11.5 mph 18.4 mph N/A   Overcast
11:15 AM 55.4 °F - 33.8 °F 44% 30.02 in 10.0 mi SW 13.8 mph 20.7 mph N/A   Overcast
11:35 AM 55.4 °F - 33.8 °F 44% 30.01 in 10.0 mi WSW 16.1 mph 20.7 mph N/A   Mostly Cloudy
11:55 AM 57.2 °F - 33.8 °F 41% 29.98 in 10.0 mi SW 16.1 mph 24.2 mph N/A   Mostly Cloudy
12:15 PM 57.2 °F - 33.8 °F 41% 29.97 in 10.0 mi WSW 18.4 mph 24.2 mph N/A   Partly Cloudy
12:35 PM 55.4 °F - 32.0 °F 41% 29.95 in 10.0 mi WSW 17.3 mph 24.2 mph N/A   Scattered Clouds
12:55 PM 53.6 °F - 32.0 °F 44% 29.96 in 10.0 mi West 25.3 mph 29.9 mph N/A   Mostly Cloudy
1:15 PM 46.4 °F 40.7 °F 39.2 °F 76% 29.98 in 10.0 mi WNW 12.7 mph - N/A   Overcast
1:35 PM 46.4 °F 41.1 °F 37.4 °F 71% 29.97 in 10.0 mi WNW 11.5 mph - N/A   Overcast
1:55 PM 50.0 °F - 37.4 °F 62% 29.97 in 10.0 mi West 10.4 mph 18.4 mph N/A   Overcast
2:15 PM 51.8 °F - 37.4 °F 58% 29.95 in 10.0 mi WSW 17.3 mph 23.0 mph N/A   Mostly Cloudy
2:35 PM 51.8 °F - 35.6 °F 54% 29.95 in 10.0 mi SW 18.4 mph 25.3 mph N/A   Mostly Cloudy
2:55 PM 51.8 °F - 33.8 °F 50% 29.94 in 10.0 mi WSW 15.0 mph - N/A   Scattered Clouds
3:15 PM 51.8 °F - 33.8 °F 50% 29.93 in 10.0 mi WSW 12.7 mph - N/A   Partly Cloudy
3:35 PM 51.8 °F - 33.8 °F 50% 29.93 in 10.0 mi SW 15.0 mph - N/A   Mostly Cloudy
3:55 PM 51.8 °F - 33.8 °F 50% 29.93 in 10.0 mi SW 12.7 mph 17.3 mph N/A   Mostly Cloudy
4:15 PM 50.0 °F - 33.8 °F 54% 29.92 in 10.0 mi SSW 12.7 mph - N/A   Partly Cloudy
4:35 PM 48.2 °F - 33.8 °F 58% 29.92 in 10.0 mi SSW 16.1 mph - N/A   Scattered Clouds
4:55 PM 48.2 °F - 33.8 °F 58% 29.92 in 10.0 mi SW 12.7 mph - N/A   Scattered Clouds
5:15 PM 48.2 °F - 33.8 °F 58% 29.92 in 10.0 mi SSW 17.3 mph 21.9 mph N/A   Partly Cloudy
5:35 PM 46.4 °F 40.7 °F 33.8 °F 62% 29.91 in 10.0 mi SSW 12.7 mph - N/A   Clear
5:55 PM 46.4 °F 39.2 °F 33.8 °F 62% 29.91 in 10.0 mi SSW 18.4 mph 21.9 mph N/A   Clear
6:15 PM 46.4 °F 39.5 °F 33.8 °F 62% 29.92 in 10.0 mi SW 17.3 mph - N/A   Clear
6:35 PM 46.4 °F 41.5 °F 33.8 °F 62% 29.92 in 10.0 mi SW 10.4 mph - N/A   Scattered Clouds
6:55 PM 46.4 °F 43.5 °F 33.8 °F 62% 29.92 in 10.0 mi SW 5.8 mph - N/A   Overcast
7:15 PM 46.4 °F 43.5 °F 33.8 °F 62% 29.92 in 10.0 mi West 5.8 mph - N/A   Overcast
7:35 PM 44.6 °F 39.2 °F 37.4 °F 76% 29.93 in 9.0 mi WNW 10.4 mph - 0.03 in   Overcast
7:55 PM 42.8 °F 35.8 °F 39.2 °F 87% 29.94 in 9.0 mi WSW 13.8 mph 17.3 mph 0.09 in   Overcast
8:15 PM 42.8 °F 35.4 °F 37.4 °F 81% 29.94 in 5.0 mi West 15.0 mph 21.9 mph 0.05 in   Overcast
8:35 PM 42.8 °F 37.5 °F 39.2 °F 87% 29.94 in 9.0 mi West 9.2 mph - 0.06 in   Overcast
8:55 PM 42.8 °F - 39.2 °F 87% 29.93 in 10.0 mi Calm Calm - 0.06 in   Overcast
9:15 PM 42.8 °F 38.0 °F 39.2 °F 87% 29.94 in 7.0 mi SSW 8.1 mph - 0.01 in   Overcast
9:35 PM 42.8 °F 39.3 °F 39.2 °F 87% 29.93 in 10.0 mi ESE 5.8 mph - 0.01 in   Mostly Cloudy
9:55 PM 42.8 °F 39.3 °F 37.4 °F 81% 29.93 in 10.0 mi SSE 5.8 mph - 0.01 in   Mostly Cloudy
10:15 PM 42.8 °F 39.3 °F 37.4 °F 81% 29.93 in 10.0 mi South 5.8 mph - N/A   Overcast
10:35 PM 42.8 °F 39.3 °F 37.4 °F 81% 29.92 in 10.0 mi South 5.8 mph - N/A   Overcast
10:55 PM 42.8 °F 38.6 °F 37.4 °F 81% 29.91 in 10.0 mi SSW 6.9 mph - 0.01 in   Overcast
11:15 PM 42.8 °F 40.1 °F 37.4 °F 81% 29.90 in 10.0 mi SSW 4.6 mph - N/A   Overcast
11:35 PM 42.8 °F 39.3 °F 37.4 °F 81% 29.89 in 10.0 mi SSW 5.8 mph - N/A   Overcast
11:55 PM 42.8 °F 41.1 °F 37.4 °F 81% 29.88 in 10.0 mi South 3.5 mph - N/A   Mostly Cloudy